FW5669 Weather Reports


Display with metric or nautical units.
time (UTC)temp
F
wind
direction
speed
MPH
gust
MPH
rain 1hr
in
rain 24hr
in
rain mn
in
humidity
%
barometer
mb
20260507060002 56 62 0.0 1.0 0.00 0.00 0.00 92 1020.5
20260507054502 56 62 0.0 0.0 0.00 0.00 0.00 92 1020.5
20260507053003 56 62 0.0 1.0 0.00 0.00 0.00 91 1020.5
20260507051501 57 62 0.0 1.0 0.00 0.00 0.00 91 1020.5
20260507050002 57 62 0.0 1.0 0.00 0.00 0.00 90 1020.4
20260507044500 58 62 0.0 1.0 0.00 0.00 0.00 90 1020.4
20260507043003 58 62 0.0 0.0 0.00 0.00 0.00 89 1020.1
20260507041501 59 62 0.0 0.0 0.00 0.00 0.00 88 1019.8
20260507040003 59 66 0.0 0.0 0.00 0.00 0.00 88 1019.8
20260507034504 60 113 0.0 1.0 0.00 0.00 0.00 87 1019.7
20260507033003 61 159 0.0 1.0 0.00 0.00 0.00 85 1019.6
20260507031501 62 159 0.0 1.0 0.00 0.00 0.00 83 1019.5
20260507030003 63 159 0.0 1.0 0.00 0.00 0.00 80 1019.5
20260507024502 64 159 0.0 1.0 0.00 0.00 0.00 78 1019.4
20260507023001 65 159 0.0 0.0 0.00 0.00 0.00 75 1019.4
20260507021502 66 159 0.0 2.0 0.00 0.00 0.00 73 1019.3
20260507020006 66 175 0.0 2.0 0.00 0.00 0.00 73 1019.3
20260507014501 67 198 0.0 2.0 0.00 0.00 0.00 72 1019.4
20260507013000 67 161 1.0 2.0 0.00 0.00 0.00 71 1019.3
20260507011504 67 177 0.0 3.0 0.00 0.00 0.00 72 1019.5
20260507010004 67 191 0.0 2.0 0.00 0.00 0.00 71 1019.5
20260507004615 67 212 0.0 3.0 0.00 0.00 0.00 70 1019.5
20260507003102 67 338 1.0 3.0 0.00 0.00 0.00 69 1019.6
20260507001602 67 141 0.0 3.0 0.00 0.00 0.00 70 1019.5
20260507000002 67 316 1.0 4.0 0.00 0.00 0.00 70 1019.5
20260506234500 67 258 1.0 2.0 0.00 0.00 0.00 70 1019.6
20260506233101 67 204 0.0 3.0 0.00 0.00 0.00 71 1019.6
20260506231603 67 198 1.0 4.0 0.00 0.00 0.00 71 1019.8
20260506230107 66 249 1.0 3.0 0.00 0.00 0.00 71 1020.0
20260506230002 66 302 1.0 4.0 0.00 0.00 0.00 71 1020.0
20260506224601 67 182 1.0 4.0 0.00 0.00 0.00 71 1020.2
20260506223110 66 151 1.0 4.0 0.00 0.00 0.00 73 1020.5
20260506223000 66 127 1.0 4.0 0.00 0.00 0.00 73 1020.5
20260506221502 65 184 1.0 4.0 0.00 0.00 0.00 75 1020.8
20260506220002 64 236 0.0 3.0 0.00 0.00 0.00 77 1021.1
20260506214605 63 229 0.0 3.0 0.00 0.00 0.00 77 1021.3
20260506214501 63 229 1.0 3.0 0.00 0.00 0.00 77 1021.4
20260506213101 63 166 0.0 3.0 0.00 0.00 0.00 76 1021.4
20260506211501 62 224 0.0 3.0 0.00 0.00 0.00 77 1021.5
20260506210005 62 231 1.0 2.0 0.00 0.00 0.00 78 1021.7
20260506204601 62 218 0.0 2.0 0.00 0.00 0.00 79 1021.8
20260506203001 62 273 0.0 2.0 0.00 0.00 0.00 80 1021.8
20260506201600 61 243 0.0 2.0 0.00 0.00 0.00 80 1022.0
20260506201502 61 243 0.0 2.0 0.00 0.00 0.00 80 1021.9
20260506200107 61 283 0.0 2.0 0.00 0.00 0.00 81 1022.0
20260506194607 61 163 0.0 2.0 0.00 0.00 0.00 82 1022.2
20260506193101 61 177 0.0 0.0 0.00 0.00 0.00 81 1022.3
20260506191609 60 261 0.0 0.0 0.00 0.00 0.00 82 1022.6
20260506190059 60 224 0.0 0.0 0.00 0.00 0.00 84 1022.7
20260506190002 60 224 0.0 0.0 0.00 0.00 0.00 84 1022.7
20260506184601 60 211 0.0 0.0 0.00 0.00 0.00 83 1022.8
20260506183005 60 235 0.0 0.0 0.00 0.00 0.00 82 1022.7
20260506181502 60 127 0.0 0.0 0.00 0.00 0.00 82 1022.7
20260506180001 60 201 0.0 0.0 0.00 0.00 0.00 83 1022.7
20260506174600 60 28 0.0 0.0 0.00 0.00 0.00 84 1022.6
20260506173137 59 189 0.0 0.0 0.00 0.00 0.00 85 1022.6
20260506171559 59 208 0.0 0.0 0.00 0.00 0.00 84 1022.6
20260506170100 59 259 0.0 0.0 0.00 0.00 0.00 83 1022.6
20260506170002 59 259 0.0 0.0 0.00 0.00 0.00 84 1022.6
20260506164601 59 209 0.0 0.0 0.00 0.00 0.00 85 1022.7
20260506163005 58 235 0.0 0.0 0.00 0.00 0.00 86 1022.6
20260506161601 58 204 0.0 0.0 0.00 0.00 0.00 86 1022.5
20260506161502 58 204 0.0 0.0 0.00 0.00 0.00 86 1022.5
20260506160002 57 180 0.0 0.0 0.00 0.00 0.00 88 1022.4
20260506154559 57 160 0.0 0.0 0.00 0.00 0.00 91 1022.5
20260506153059 56 142 0.0 0.0 0.00 0.00 0.00 91 1022.4
20260506151600 56 122 0.0 0.0 0.00 0.00 0.00 92 1022.4
20260506150100 55 122 0.0 0.0 0.00 0.00 0.00 93 1022.5
20260506150002 55 122 0.0 0.0 0.00 0.00 0.00 93 1022.5
20260506144608 55 122 0.0 0.0 0.00 0.00 0.00 93 1022.5
20260506143100 55 122 0.0 0.0 0.00 0.00 0.00 93 1022.5
20260506141559 54 122 0.0 0.0 0.00 0.00 0.00 93 1022.2
20260506140100 54 122 0.0 0.0 0.00 0.00 0.00 93 1022.0
20260506140002 54 122 0.0 0.0 0.00 0.00 0.00 93 1022.0
20260506134604 54 122 0.0 0.0 0.00 0.00 0.00 93 1022.0
20260506133101 54 143 0.0 0.0 0.00 0.00 0.00 93 1021.9
20260506131600 54 143 0.0 0.0 0.00 0.00 0.00 93 1021.7
20260506130100 54 143 0.0 0.0 0.00 0.00 0.00 94 1021.6
20260506124559 54 143 0.0 0.0 0.00 0.00 0.00 94 1021.6
20260506123100 54 143 0.0 0.0 0.00 0.00 0.00 93 1021.4
20260506121601 54 143 0.0 0.0 0.00 0.00 0.00 94 1021.5
20260506120111 54 143 0.0 0.0 0.00 0.00 0.00 94 1021.3
20260506120001 54 143 0.0 0.0 0.00 0.00 0.00 94 1021.3
20260506114603 54 143 0.0 0.0 0.00 0.00 0.00 93 1021.3
20260506113101 54 143 0.0 0.0 0.00 0.00 0.00 93 1021.3
20260506111601 54 143 0.0 0.0 0.00 0.00 0.00 93 1021.3
20260506110059 54 143 0.0 0.0 0.00 0.00 0.00 93 1021.1
20260506110001 54 143 0.0 0.0 0.00 0.00 0.00 93 1021.1
20260506104601 54 143 0.0 0.0 0.00 0.00 0.00 93 1021.0
20260506103059 54 143 0.0 0.0 0.00 0.00 0.00 93 1021.1
20260506101601 54 143 0.0 0.0 0.00 0.00 0.00 93 1020.9
20260506100106 54 143 0.0 0.0 0.00 0.00 0.00 93 1020.8
20260506100002 54 143 0.0 0.0 0.00 0.00 0.00 93 1020.8
20260506094613 54 143 0.0 0.0 0.00 0.00 0.00 93 1020.8
20260506093059 54 143 0.0 0.0 0.00 0.00 0.00 93 1020.8
20260506091602 54 143 0.0 0.0 0.00 0.00 0.00 93 1020.8
20260506084601 54 143 0.0 0.0 0.00 0.00 0.00 93 1020.9
20260506083106 54 143 0.0 0.0 0.00 0.00 0.00 93 1020.9
20260506081558 54 143 0.0 0.0 0.00 0.00 0.00 92 1020.9
20260506073114 54 44 0.0 0.0 0.00 0.03 0.00 92 1020.5
20260506071601 55 44 0.0 0.0 0.00 0.03 0.00 91 1020.4
20260506061502 55 44 0.0 0.0 0.00 0.06 0.03 91 1020.3